Location: Wildlife_Club
(35.6000°N, 81.4330°W)
Time: 15:56:16
(UTC-04:00)

Courier 1B Rocket - Pass Details

Date: 25 June 2019
Orbit: 920 x 1202 km, 28.2° (Epoch: 21 July)

Event Time Altitude Azimuth Distance (km) Brightness Sun altitude
Exits shadow 04:00:11 30° 185° (S) 1,839 6.0 -20.9°
Maximum altitude 04:01:36 32° 164° (SSE) 1,743 6.0 -20.8°
Drops below altitude 10° 04:07:36 10° 103° (ESE) 2,818 7.7 -20.0°
Sets 04:10:30 0° 94° (E) 3,726 8.6 -19.6°
